[Date Prev][Date Next][Thread Prev][Thread Next] - [Date Index][Thread Index][Author Index]
2 Line ISS Keps 10-24
- Subject: [sarex] 2 Line ISS Keps 10-24
- From: "Dave Larsen PhD" <doc@xxxxxxxxxxx>
- Date: Wed, 24 Oct 2001 03:45:00 -0700
ISS
1 25544U 98067A 01297.15733196 .00077556 00000-0 10083-2 0 6423
2 25544 51.6366 160.0260 0008397 237.8213 268.5621 15.58055918167200
----
Via the sarex mailing list at AMSAT.ORG courtesy of AMSAT-NA.
To unsubscribe, send "unsubscribe sarex" to Majordomo@amsat.org
AMSAT Home